GEFSNGP_prec_meanprecacc_114.txt.gz
Total_Precipitation_Accumulation
0.14 0.15 0.23 0.43 0.54 0.52 0.48 0.51 0.68 0.71 0.64 0.59 0.54 0.61 0.66 0.69 0.66 0.57 0.54 0.55 0.60 0.64 0.64 0.62 0.59 0.61 0.63 0.69 0.80 0.94 1.08 1.07 0.93 0.74 0.61 0.54 0.50 0.43 0.40 0.41 0.42 0.48 0.53 0.56
0.03 0.06 0.15 0.29 0.40 0.42 0.38 0.36 0.44 0.49 0.49 0.40 0.37 0.43 0.44 0.46 0.42 0.39 0.35 0.33 0.31 0.32 0.33 0.34 0.31 0.28 0.27 0.33 0.48 0.73 0.99 0.97 0.75 0.58 0.46 0.41 0.41 0.39 0.35 0.34 0.39 0.44 0.44 0.47
0.03 0.03 0.10 0.30 0.36 0.34 0.33 0.25 0.25 0.31 0.31 0.27 0.29 0.35 0.35 0.37 0.39 0.29 0.22 0.20 0.20 0.20 0.20 0.20 0.19 0.18 0.19 0.26 0.38 0.54 0.64 0.60 0.51 0.40 0.38 0.41 0.43 0.37 0.34 0.34 0.35 0.38 0.39 0.40
0.06 0.08 0.28 0.57 0.52 0.44 0.40 0.22 0.15 0.15 0.16 0.19 0.28 0.30 0.30 0.29 0.28 0.27 0.17 0.11 0.11 0.12 0.13 0.15 0.16 0.19 0.22 0.27 0.34 0.38 0.40 0.40 0.34 0.30 0.31 0.34 0.35 0.34 0.40 0.44 0.42 0.42 0.44 0.44
0.15 0.19 0.41 0.54 0.49 0.49 0.48 0.33 0.13 0.09 0.10 0.09 0.09 0.10 0.11 0.12 0.10 0.10 0.07 0.04 0.03 0.03 0.03 0.05 0.05 0.06 0.08 0.10 0.12 0.12 0.12 0.13 0.12 0.12 0.13 0.14 0.16 0.22 0.33 0.40 0.42 0.44 0.48 0.48
0.21 0.29 0.42 0.36 0.23 0.25 0.37 0.43 0.12 0.05 0.04 0.02 0.01 0.03 0.05 0.06 0.06 0.02 0.01 0.01 0.00 0.00 0.00 0.00 0.00 0.00 0.00 0.00 0.01 0.01 0.01 0.01 0.01 0.02 0.02 0.04 0.06 0.09 0.15 0.19 0.24 0.32 0.34 0.38
0.24 0.42 0.63 0.45 0.25 0.23 0.39 0.39 0.09 0.03 0.01 0.00 0.00 0.00 0.01 0.04 0.05 0.02 0.00 0.00 0.00 0.00 0.00 0.00 0.00 0.00 0.00 0.00 0.00 0.00 0.00 0.00 0.00 0.00 0.00 0.01 0.02 0.03 0.06 0.08 0.12 0.17 0.21 0.27
0.30 0.59 0.82 0.64 0.41 0.34 0.26 0.11 0.03 0.01 0.00 0.00 0.00 0.00 0.01 0.02 0.03 0.02 0.01 0.00 0.00 0.00 0.00 0.00 0.00 0.00 0.00 0.00 0.00 0.00 0.00 0.00 0.00 0.00 0.00 0.01 0.01 0.02 0.02 0.03 0.06 0.09 0.11 0.16
0.21 0.45 0.52 0.46 0.35 0.24 0.17 0.07 0.01 0.00 0.00 0.00 0.00 0.00 0.00 0.01 0.01 0.01 0.00 0.00 0.00 0.00 0.00 0.00 0.00 0.00 0.00 0.00 0.00 0.00 0.00 0.00 0.00 0.00 0.01 0.01 0.01 0.01 0.02 0.03 0.05 0.06 0.09 0.15
0.03 0.09 0.15 0.18 0.18 0.11 0.08 0.05 0.01 0.00 0.00 0.00 0.00 0.00 0.00 0.01 0.01 0.01 0.00 0.00 0.00 0.00 0.00 0.00 0.00 0.00 0.00 0.00 0.00 0.00 0.00 0.00 0.00 0.01 0.01 0.01 0.02 0.03 0.03 0.04 0.05 0.09 0.14 0.19
0.02 0.01 0.02 0.06 0.08 0.07 0.04 0.02 0.00 0.00 0.00 0.00 0.00 0.00 0.00 0.01 0.01 0.01 0.00 0.00 0.00 0.00 0.00 0.00 0.00 0.00 0.00 0.00 0.00 0.00 0.00 0.00 0.00 0.00 0.01 0.01 0.01 0.01 0.02 0.03 0.04 0.10 0.17 0.21
0.01 0.00 0.01 0.03 0.04 0.03 0.02 0.01 0.00 0.00 0.00 0.00 0.00 0.00 0.00 0.00 0.01 0.00 0.00 0.00 0.00 0.00 0.00 0.00 0.00 0.00 0.00 0.00 0.00 0.00 0.00 0.00 0.00 0.00 0.01 0.01 0.01 0.01 0.01 0.02 0.05 0.07 0.07 0.09
0.00 0.00 0.00 0.01 0.01 0.01 0.01 0.00 0.00 0.00 0.00 0.00 0.00 0.00 0.00 0.00 0.00 0.00 0.00 0.00 0.00 0.00 0.00 0.00 0.00 0.00 0.00 0.00 0.00 0.00 0.00 0.00 0.00 0.00 0.01 0.01 0.02 0.04 0.05 0.04 0.02 0.01 0.01 0.02
0.00 0.00 0.00 0.00 0.00 0.00 0.00 0.00 0.00 0.00 0.00 0.00 0.00 0.00 0.00 0.00 0.00 0.00 0.00 0.00 0.00 0.00 0.00 0.00 0.00 0.00 0.00 0.00 0.00 0.00 0.00 0.00 0.01 0.03 0.05 0.05 0.05 0.09 0.13 0.17 0.14 0.07 0.01 0.01
0.00 0.00 0.00 0.00 0.00 0.00 0.00 0.00 0.00 0.00 0.00 0.00 0.00 0.00 0.00 0.00 0.00 0.00 0.00 0.00 0.00 0.00 0.00 0.00 0.00 0.00 0.00 0.00 0.00 0.00 0.00 0.01 0.03 0.07 0.09 0.07 0.08 0.13 0.14 0.10 0.08 0.07 0.04 0.02
0.00 0.00 0.00 0.00 0.00 0.00 0.00 0.00 0.00 0.00 0.00 0.00 0.00 0.00 0.00 0.00 0.00 0.00 0.00 0.00 0.00 0.00 0.00 0.00 0.00 0.00 0.00 0.00 0.00 0.00 0.00 0.00 0.02 0.07 0.09 0.07 0.07 0.08 0.07 0.05 0.03 0.04 0.04 0.04
0.01 0.01 0.01 0.00 0.00 0.00 0.00 0.00 0.00 0.00 0.00 0.00 0.00 0.00 0.00 0.00 0.00 0.00 0.00 0.00 0.00 0.00 0.00 0.00 0.00 0.00 0.00 0.00 0.00 0.00 0.00 0.00 0.01 0.03 0.05 0.04 0.04 0.04 0.03 0.03 0.02 0.03 0.02 0.01
0.02 0.02 0.01 0.01 0.01 0.00 0.00 0.00 0.00 0.00 0.00 0.00 0.00 0.00 0.00 0.00 0.00 0.00 0.00 0.00 0.00 0.00 0.00 0.00 0.00 0.00 0.00 0.00 0.00 0.00 0.00 0.01 0.03 0.05 0.05 0.03 0.03 0.04 0.06 0.04 0.03 0.03 0.03 0.02
0.02 0.02 0.02 0.01 0.01 0.01 0.01 0.01 0.01 0.01 0.00 0.00 0.00 0.00 0.00 0.00 0.00 0.00 0.01 0.01 0.01 0.01 0.00 0.00 0.01 0.01 0.00 0.00 0.01 0.01 0.01 0.02 0.03 0.05 0.05 0.03 0.04 0.05 0.06 0.05 0.03 0.03 0.04 0.04
0.03 0.03 0.02 0.02 0.01 0.01 0.01 0.01 0.01 0.01 0.01 0.00 0.00 0.00 0.01 0.01 0.01 0.01 0.02 0.02 0.02 0.01 0.01 0.01 0.01 0.01 0.01 0.01 0.01 0.01 0.02 0.02 0.03 0.05 0.06 0.05 0.05 0.07 0.07 0.04 0.04 0.05 0.05 0.05
0.03 0.02 0.01 0.01 0.01 0.01 0.01 0.00 0.00 0.01 0.01 0.01 0.01 0.01 0.01 0.01 0.02 0.03 0.03 0.03 0.03 0.02 0.02 0.02 0.01 0.01 0.01 0.01 0.01 0.02 0.02 0.03 0.03 0.05 0.05 0.04 0.04 0.05 0.06 0.05 0.05 0.05 0.04 0.04
0.04 0.03 0.02 0.02 0.01 0.02 0.02 0.01 0.01 0.01 0.01 0.01 0.02 0.02 0.02 0.02 0.02 0.02 0.03 0.03 0.03 0.04 0.04 0.03 0.03 0.02 0.03 0.03 0.02 0.02 0.03 0.03 0.04 0.04 0.04 0.04 0.04 0.04 0.05 0.05 0.04 0.04 0.03 0.04
0.05 0.05 0.04 0.03 0.03 0.03 0.03 0.03 0.02 0.02 0.02 0.02 0.02 0.02 0.03 0.03 0.03 0.03 0.03 0.03 0.04 0.05 0.05 0.04 0.05 0.06 0.05 0.04 0.04 0.05 0.05 0.05 0.05 0.05 0.05 0.06 0.06 0.05 0.04 0.03 0.03 0.03 0.03 0.04
0.05 0.05 0.04 0.04 0.04 0.03 0.04 0.04 0.03 0.03 0.03 0.03 0.03 0.03 0.04 0.04 0.05 0.05 0.06 0.07 0.07 0.08 0.07 0.07 0.08 0.09 0.08 0.07 0.07 0.08 0.09 0.08 0.07 0.07 0.07 0.07 0.07 0.06 0.04 0.03 0.03 0.03 0.03 0.03
0.04 0.05 0.05 0.05 0.05 0.04 0.04 0.04 0.04 0.05 0.05 0.05 0.05 0.05 0.05 0.05 0.06 0.07 0.08 0.10 0.11 0.11 0.11 0.11 0.12 0.12 0.10 0.09 0.09 0.09 0.11 0.12 0.13 0.12 0.11 0.10 0.09 0.08 0.07 0.06 0.05 0.04 0.04 0.03
0.03 0.04 0.05 0.06 0.07 0.06 0.06 0.05 0.05 0.05 0.05 0.06 0.06 0.07 0.07 0.07 0.07 0.07 0.08 0.09 0.10 0.12 0.12 0.12 0.12 0.13 0.11 0.11 0.12 0.12 0.12 0.12 0.12 0.14 0.15 0.15 0.14 0.13 0.11 0.10 0.09 0.07 0.06 0.06
0.02 0.03 0.04 0.05 0.07 0.07 0.07 0.07 0.07 0.06 0.05 0.05 0.06 0.06 0.07 0.08 0.10 0.10 0.10 0.09 0.09 0.11 0.13 0.14 0.15 0.15 0.14 0.13 0.13 0.14 0.14 0.14 0.14 0.13 0.14 0.16 0.16 0.15 0.14 0.12 0.12 0.11 0.11 0.09

GEFSNGP_prec_meanprecacc_120.txt.gz
Total_Precipitation_Accumulation
0.14 0.15 0.23 0.43 0.54 0.52 0.48 0.51 0.68 0.71 0.64 0.59 0.54 0.61 0.66 0.70 0.66 0.57 0.54 0.55 0.60 0.64 0.64 0.62 0.59 0.61 0.63 0.69 0.80 0.94 1.08 1.07 0.93 0.74 0.61 0.54 0.50 0.43 0.40 0.41 0.42 0.48 0.53 0.57
0.03 0.06 0.15 0.29 0.40 0.42 0.38 0.36 0.44 0.49 0.49 0.40 0.37 0.43 0.44 0.46 0.42 0.39 0.35 0.33 0.31 0.32 0.33 0.34 0.31 0.28 0.27 0.33 0.48 0.73 0.99 0.97 0.75 0.58 0.46 0.41 0.41 0.39 0.35 0.34 0.39 0.44 0.44 0.47
0.03 0.03 0.10 0.30 0.36 0.34 0.33 0.25 0.25 0.31 0.31 0.27 0.29 0.35 0.35 0.37 0.39 0.29 0.22 0.20 0.20 0.21 0.20 0.20 0.19 0.18 0.19 0.26 0.38 0.54 0.64 0.60 0.51 0.40 0.38 0.41 0.43 0.37 0.34 0.34 0.35 0.38 0.39 0.40
0.06 0.08 0.28 0.57 0.52 0.44 0.40 0.22 0.15 0.15 0.16 0.19 0.28 0.30 0.30 0.29 0.28 0.27 0.18 0.11 0.11 0.12 0.13 0.15 0.16 0.19 0.22 0.27 0.34 0.38 0.40 0.40 0.34 0.31 0.31 0.34 0.35 0.34 0.40 0.44 0.42 0.42 0.44 0.44
0.15 0.19 0.41 0.54 0.49 0.49 0.48 0.33 0.13 0.09 0.10 0.09 0.09 0.10 0.11 0.12 0.10 0.10 0.07 0.04 0.03 0.03 0.03 0.05 0.05 0.06 0.08 0.10 0.12 0.13 0.12 0.13 0.12 0.12 0.13 0.14 0.16 0.22 0.33 0.40 0.42 0.44 0.48 0.48
0.21 0.29 0.42 0.36 0.23 0.25 0.37 0.43 0.12 0.05 0.04 0.02 0.01 0.03 0.05 0.06 0.06 0.02 0.01 0.01 0.00 0.00 0.00 0.00 0.00 0.00 0.00 0.00 0.01 0.01 0.01 0.01 0.01 0.02 0.02 0.04 0.06 0.09 0.15 0.19 0.24 0.32 0.34 0.38
0.24 0.42 0.63 0.45 0.25 0.23 0.39 0.39 0.09 0.03 0.01 0.00 0.00 0.00 0.01 0.04 0.05 0.02 0.00 0.00 0.00 0.00 0.00 0.00 0.00 0.00 0.00 0.00 0.00 0.00 0.00 0.00 0.00 0.00 0.00 0.01 0.02 0.03 0.06 0.08 0.12 0.17 0.21 0.27
0.30 0.59 0.82 0.64 0.41 0.34 0.26 0.11 0.03 0.01 0.00 0.00 0.00 0.00 0.01 0.02 0.03 0.02 0.01 0.00 0.00 0.00 0.00 0.00 0.00 0.00 0.00 0.00 0.00 0.00 0.00 0.00 0.00 0.00 0.00 0.01 0.01 0.02 0.02 0.03 0.06 0.09 0.11 0.16
0.21 0.45 0.52 0.46 0.35 0.25 0.17 0.07 0.01 0.00 0.00 0.00 0.00 0.00 0.00 0.01 0.01 0.01 0.00 0.00 0.00 0.00 0.00 0.00 0.00 0.00 0.00 0.00 0.00 0.00 0.00 0.00 0.01 0.01 0.01 0.01 0.01 0.01 0.02 0.03 0.05 0.06 0.09 0.15
0.03 0.09 0.15 0.18 0.18 0.11 0.08 0.05 0.01 0.00 0.00 0.00 0.00 0.00 0.00 0.01 0.01 0.01 0.00 0.00 0.00 0.00 0.00 0.00 0.00 0.00 0.00 0.00 0.00 0.00 0.00 0.00 0.00 0.01 0.01 0.01 0.02 0.03 0.03 0.04 0.05 0.09 0.14 0.19
0.02 0.01 0.02 0.06 0.08 0.07 0.04 0.02 0.00 0.00 0.00 0.00 0.00 0.00 0.00 0.01 0.01 0.01 0.00 0.00 0.00 0.00 0.00 0.00 0.00 0.00 0.00 0.00 0.00 0.00 0.00 0.00 0.00 0.01 0.01 0.01 0.01 0.01 0.02 0.03 0.04 0.10 0.17 0.21
0.01 0.00 0.01 0.03 0.04 0.03 0.02 0.01 0.00 0.00 0.00 0.00 0.00 0.00 0.00 0.00 0.01 0.00 0.00 0.00 0.00 0.00 0.00 0.00 0.00 0.00 0.00 0.00 0.00 0.00 0.00 0.00 0.00 0.01 0.01 0.01 0.01 0.01 0.01 0.02 0.05 0.07 0.07 0.09
0.00 0.00 0.00 0.01 0.01 0.01 0.01 0.00 0.00 0.00 0.00 0.00 0.00 0.00 0.00 0.00 0.00 0.00 0.00 0.00 0.00 0.00 0.00 0.00 0.00 0.00 0.00 0.00 0.00 0.00 0.00 0.00 0.00 0.01 0.01 0.01 0.02 0.04 0.05 0.04 0.02 0.01 0.01 0.02
0.00 0.00 0.00 0.00 0.00 0.00 0.00 0.00 0.00 0.00 0.00 0.00 0.00 0.00 0.00 0.00 0.00 0.00 0.00 0.00 0.00 0.00 0.00 0.00 0.00 0.00 0.00 0.00 0.00 0.00 0.00 0.00 0.01 0.03 0.05 0.06 0.06 0.09 0.14 0.17 0.15 0.07 0.02 0.01
0.00 0.00 0.00 0.00 0.00 0.00 0.00 0.00 0.00 0.00 0.00 0.00 0.00 0.00 0.00 0.00 0.00 0.00 0.00 0.00 0.00 0.00 0.00 0.00 0.00 0.00 0.00 0.00 0.00 0.00 0.00 0.01 0.03 0.08 0.10 0.08 0.09 0.13 0.15 0.11 0.09 0.08 0.05 0.02
0.00 0.00 0.00 0.00 0.00 0.00 0.00 0.00 0.00 0.00 0.00 0.00 0.00 0.00 0.00 0.00 0.00 0.00 0.00 0.00 0.00 0.00 0.00 0.00 0.00 0.00 0.00 0.00 0.00 0.00 0.00 0.00 0.02 0.07 0.10 0.08 0.08 0.09 0.08 0.06 0.04 0.05 0.05 0.05
0.01 0.01 0.01 0.00 0.00 0.00 0.00 0.00 0.00 0.00 0.00 0.00 0.00 0.00 0.00 0.00 0.00 0.00 0.00 0.00 0.00 0.00 0.00 0.00 0.00 0.00 0.00 0.00 0.00 0.00 0.00 0.01 0.01 0.04 0.06 0.05 0.05 0.06 0.05 0.05 0.05 0.05 0.04 0.03
0.02 0.02 0.01 0.01 0.01 0.00 0.00 0.00 0.00 0.00 0.00 0.00 0.00 0.00 0.00 0.00 0.00 0.00 0.00 0.00 0.00 0.00 0.00 0.00 0.00 0.00 0.01 0.01 0.01 0.01 0.01 0.02 0.03 0.05 0.06 0.04 0.05 0.07 0.09 0.08 0.06 0.07 0.06 0.05
0.02 0.02 0.02 0.01 0.01 0.01 0.01 0.01 0.01 0.01 0.00 0.00 0.00 0.00 0.00 0.00 0.00 0.00 0.01 0.01 0.01 0.01 0.00 0.00 0.01 0.01 0.01 0.01 0.02 0.02 0.02 0.02 0.04 0.06 0.06 0.05 0.06 0.08 0.10 0.09 0.08 0.09 0.09 0.09
0.03 0.03 0.03 0.02 0.01 0.01 0.01 0.01 0.01 0.01 0.01 0.00 0.00 0.00 0.01 0.01 0.01 0.01 0.02 0.02 0.02 0.02 0.01 0.01 0.01 0.01 0.01 0.01 0.02 0.03 0.03 0.04 0.05 0.07 0.07 0.06 0.07 0.09 0.10 0.09 0.09 0.10 0.11 0.11
0.03 0.02 0.02 0.01 0.01 0.01 0.01 0.01 0.00 0.01 0.01 0.01 0.01 0.01 0.01 0.01 0.02 0.03 0.03 0.03 0.03 0.03 0.02 0.02 0.02 0.02 0.02 0.03 0.03 0.04 0.04 0.05 0.05 0.06 0.07 0.06 0.07 0.08 0.10 0.10 0.10 0.11 0.11 0.10
0.04 0.03 0.02 0.02 0.01 0.02 0.02 0.01 0.01 0.01 0.01 0.01 0.02 0.02 0.02 0.02 0.02 0.02 0.03 0.03 0.04 0.04 0.04 0.04 0.03 0.04 0.05 0.06 0.05 0.04 0.04 0.05 0.05 0.06 0.07 0.06 0.06 0.07 0.09 0.10 0.11 0.11 0.11 0.11
0.05 0.05 0.04 0.03 0.03 0.03 0.03 0.03 0.02 0.02 0.02 0.02 0.02 0.03 0.03 0.03 0.03 0.03 0.03 0.03 0.04 0.06 0.05 0.05 0.06 0.08 0.10 0.08 0.07 0.07 0.07 0.07 0.07 0.07 0.08 0.10 0.10 0.10 0.09 0.09 0.09 0.10 0.12 0.13
0.06 0.05 0.04 0.04 0.04 0.03 0.04 0.05 0.04 0.03 0.03 0.03 0.03 0.03 0.04 0.05 0.05 0.06 0.06 0.07 0.08 0.08 0.08 0.09 0.10 0.12 0.13 0.11 0.10 0.10 0.11 0.10 0.10 0.10 0.10 0.11 0.12 0.12 0.10 0.09 0.10 0.11 0.11 0.12
0.04 0.05 0.05 0.05 0.05 0.04 0.04 0.04 0.05 0.05 0.05 0.05 0.06 0.06 0.06 0.06 0.07 0.08 0.09 0.10 0.11 0.12 0.12 0.13 0.14 0.15 0.13 0.13 0.13 0.13 0.14 0.15 0.16 0.16 0.15 0.15 0.14 0.14 0.13 0.13 0.13 0.13 0.14 0.13
0.03 0.04 0.05 0.06 0.07 0.06 0.06 0.05 0.05 0.05 0.05 0.06 0.07 0.07 0.08 0.08 0.08 0.08 0.09 0.10 0.11 0.13 0.13 0.13 0.14 0.15 0.14 0.16 0.17 0.17 0.16 0.16 0.16 0.17 0.19 0.20 0.19 0.20 0.20 0.20 0.18 0.17 0.17 0.17
0.02 0.03 0.04 0.05 0.07 0.07 0.07 0.07 0.07 0.06 0.05 0.05 0.06 0.06 0.07 0.09 0.11 0.11 0.10 0.10 0.10 0.12 0.14 0.15 0.17 0.17 0.18 0.19 0.18 0.18 0.18 0.18 0.18 0.18 0.19 0.22 0.23 0.23 0.23 0.24 0.24 0.23 0.23 0.21

GEFSNGP_prec_meanprecacc_126.txt.gz
Total_Precipitation_Accumulation
0.14 0.15 0.23 0.43 0.54 0.52 0.48 0.51 0.68 0.71 0.64 0.59 0.54 0.61 0.66 0.70 0.66 0.57 0.54 0.55 0.60 0.64 0.64 0.62 0.59 0.61 0.63 0.69 0.80 0.94 1.08 1.07 0.93 0.74 0.61 0.55 0.50 0.43 0.41 0.41 0.42 0.48 0.54 0.57
0.03 0.06 0.15 0.29 0.40 0.42 0.38 0.36 0.44 0.49 0.49 0.40 0.37 0.43 0.44 0.46 0.42 0.39 0.35 0.33 0.31 0.32 0.33 0.34 0.31 0.28 0.27 0.33 0.48 0.73 0.99 0.97 0.75 0.58 0.47 0.42 0.41 0.39 0.35 0.34 0.39 0.44 0.45 0.47
0.03 0.03 0.10 0.30 0.36 0.34 0.33 0.25 0.25 0.31 0.31 0.27 0.29 0.35 0.35 0.37 0.39 0.29 0.22 0.20 0.20 0.21 0.20 0.20 0.19 0.18 0.19 0.26 0.38 0.54 0.64 0.60 0.51 0.40 0.38 0.41 0.43 0.37 0.35 0.34 0.35 0.38 0.39 0.40
0.06 0.08 0.28 0.57 0.52 0.44 0.40 0.22 0.15 0.15 0.16 0.19 0.28 0.30 0.30 0.29 0.28 0.27 0.18 0.11 0.11 0.12 0.13 0.15 0.16 0.19 0.22 0.27 0.34 0.38 0.40 0.40 0.34 0.31 0.32 0.34 0.36 0.34 0.40 0.44 0.42 0.42 0.44 0.44
0.15 0.19 0.41 0.54 0.49 0.49 0.48 0.33 0.13 0.09 0.10 0.09 0.09 0.10 0.11 0.12 0.10 0.10 0.07 0.04 0.03 0.03 0.03 0.05 0.05 0.06 0.08 0.10 0.12 0.13 0.12 0.13 0.12 0.12 0.13 0.15 0.16 0.22 0.33 0.40 0.42 0.45 0.48 0.48
0.21 0.29 0.42 0.36 0.23 0.25 0.37 0.43 0.12 0.05 0.04 0.02 0.01 0.03 0.05 0.06 0.06 0.02 0.01 0.01 0.00 0.00 0.00 0.00 0.00 0.00 0.00 0.01 0.01 0.01 0.01 0.01 0.01 0.02 0.02 0.04 0.06 0.09 0.16 0.19 0.25 0.32 0.34 0.38
0.24 0.42 0.63 0.45 0.25 0.23 0.39 0.39 0.09 0.03 0.01 0.00 0.00 0.00 0.01 0.04 0.05 0.02 0.00 0.00 0.00 0.00 0.00 0.00 0.00 0.00 0.00 0.00 0.00 0.00 0.00 0.00 0.00 0.00 0.00 0.01 0.02 0.04 0.06 0.08 0.13 0.17 0.21 0.27
0.30 0.59 0.82 0.64 0.41 0.34 0.26 0.11 0.03 0.01 0.00 0.00 0.00 0.00 0.01 0.02 0.03 0.02 0.01 0.00 0.00 0.00 0.00 0.00 0.00 0.00 0.00 0.00 0.00 0.00 0.00 0.00 0.00 0.00 0.00 0.01 0.01 0.02 0.02 0.03 0.06 0.09 0.12 0.16
0.21 0.45 0.52 0.46 0.35 0.25 0.17 0.07 0.01 0.00 0.00 0.00 0.00 0.00 0.00 0.01 0.01 0.01 0.00 0.00 0.00 0.00 0.00 0.00 0.00 0.00 0.00 0.00 0.00 0.00 0.00 0.00 0.01 0.01 0.01 0.01 0.02 0.02 0.02 0.03 0.05 0.07 0.10 0.16
0.03 0.09 0.15 0.18 0.18 0.11 0.08 0.05 0.01 0.00 0.00 0.00 0.00 0.00 0.00 0.01 0.01 0.01 0.00 0.00 0.00 0.00 0.00 0.00 0.00 0.00 0.00 0.00 0.00 0.00 0.00 0.00 0.00 0.01 0.01 0.01 0.02 0.03 0.04 0.04 0.06 0.09 0.15 0.19
0.02 0.01 0.02 0.06 0.08 0.07 0.04 0.02 0.00 0.00 0.00 0.00 0.00 0.00 0.00 0.01 0.01 0.01 0.00 0.00 0.00 0.00 0.00 0.00 0.00 0.00 0.00 0.00 0.00 0.00 0.00 0.00 0.00 0.01 0.01 0.01 0.01 0.01 0.02 0.03 0.05 0.11 0.18 0.22
0.01 0.00 0.01 0.03 0.04 0.03 0.02 0.01 0.00 0.00 0.00 0.00 0.00 0.00 0.00 0.00 0.01 0.00 0.00 0.00 0.00 0.00 0.00 0.00 0.00 0.00 0.00 0.00 0.00 0.00 0.00 0.00 0.00 0.01 0.01 0.01 0.01 0.01 0.01 0.02 0.06 0.08 0.08 0.10
0.00 0.00 0.00 0.01 0.01 0.01 0.01 0.00 0.00 0.00 0.00 0.00 0.00 0.00 0.00 0.00 0.00 0.00 0.00 0.00 0.00 0.00 0.00 0.00 0.00 0.00 0.00 0.00 0.00 0.00 0.00 0.00 0.00 0.01 0.01 0.01 0.02 0.04 0.06 0.05 0.03 0.02 0.02 0.03
0.00 0.00 0.00 0.00 0.00 0.00 0.00 0.00 0.00 0.00 0.00 0.00 0.00 0.00 0.00 0.00 0.00 0.00 0.00 0.00 0.00 0.00 0.00 0.00 0.00 0.00 0.00 0.00 0.00 0.00 0.00 0.00 0.01 0.03 0.05 0.06 0.06 0.10 0.14 0.19 0.16 0.09 0.04 0.03
0.00 0.00 0.00 0.00 0.00 0.00 0.00 0.00 0.00 0.00 0.00 0.00 0.00 0.00 0.00 0.00 0.00 0.00 0.00 0.00 0.00 0.00 0.00 0.00 0.00 0.00 0.00 0.00 0.00 0.00 0.00 0.01 0.03 0.08 0.10 0.08 0.09 0.14 0.16 0.12 0.10 0.10 0.07 0.05
0.00 0.00 0.00 0.00 0.00 0.00 0.00 0.00 0.00 0.00 0.00 0.00 0.00 0.00 0.00 0.00 0.00 0.00 0.00 0.00 0.00 0.00 0.00 0.00 0.00 0.00 0.00 0.00 0.00 0.00 0.01 0.01 0.03 0.08 0.10 0.09 0.08 0.09 0.09 0.07 0.05 0.07 0.08 0.09
0.01 0.01 0.01 0.00 0.00 0.00 0.00 0.00 0.00 0.00 0.00 0.00 0.00 0.00 0.00 0.00 0.00 0.00 0.00 0.00 0.00 0.00 0.00 0.00 0.00 0.00 0.00 0.00 0.01 0.01 0.01 0.02 0.02 0.05 0.07 0.06 0.06 0.06 0.06 0.06 0.07 0.08 0.08 0.08
0.02 0.02 0.01 0.01 0.01 0.00 0.00 0.00 0.00 0.00 0.00 0.00 0.00 0.00 0.00 0.00 0.00 0.00 0.00 0.00 0.00 0.00 0.00 0.00 0.00 0.00 0.01 0.01 0.01 0.01 0.02 0.03 0.05 0.06 0.07 0.05 0.06 0.08 0.10 0.09 0.08 0.10 0.10 0.11
0.02 0.02 0.02 0.01 0.01 0.01 0.01 0.01 0.01 0.01 0.00 0.00 0.00 0.00 0.00 0.00 0.00 0.00 0.01 0.01 0.01 0.01 0.00 0.00 0.01 0.01 0.01 0.01 0.02 0.03 0.03 0.03 0.05 0.07 0.08 0.06 0.07 0.09 0.11 0.11 0.10 0.11 0.12 0.14
0.03 0.03 0.03 0.02 0.01 0.01 0.01 0.01 0.01 0.01 0.01 0.01 0.00 0.00 0.01 0.01 0.01 0.01 0.02 0.02 0.02 0.02 0.01 0.01 0.01 0.01 0.01 0.02 0.03 0.04 0.04 0.05 0.07 0.09 0.09 0.08 0.09 0.11 0.11 0.10 0.11 0.13 0.14 0.15
0.03 0.02 0.02 0.02 0.01 0.01 0.01 0.01 0.01 0.01 0.01 0.01 0.01 0.01 0.01 0.01 0.02 0.03 0.03 0.03 0.03 0.03 0.02 0.02 0.02 0.02 0.02 0.03 0.05 0.05 0.06 0.07 0.07 0.08 0.09 0.08 0.08 0.10 0.11 0.12 0.12 0.13 0.14 0.14
0.04 0.03 0.02 0.02 0.02 0.02 0.02 0.01 0.01 0.01 0.01 0.01 0.02 0.02 0.02 0.02 0.02 0.02 0.03 0.03 0.04 0.04 0.04 0.04 0.03 0.04 0.06 0.08 0.07 0.06 0.06 0.07 0.08 0.08 0.09 0.08 0.09 0.10 0.11 0.12 0.13 0.14 0.14 0.15
0.05 0.05 0.04 0.03 0.03 0.03 0.03 0.03 0.02 0.02 0.02 0.02 0.02 0.03 0.03 0.03 0.03 0.03 0.03 0.03 0.04 0.06 0.06 0.05 0.07 0.09 0.12 0.09 0.08 0.08 0.09 0.09 0.09 0.10 0.11 0.13 0.14 0.13 0.12 0.12 0.13 0.13 0.15 0.17
0.06 0.05 0.04 0.04 0.04 0.03 0.04 0.05 0.04 0.03 0.03 0.03 0.03 0.03 0.04 0.05 0.05 0.06 0.06 0.07 0.08 0.09 0.08 0.09 0.10 0.13 0.14 0.12 0.11 0.12 0.12 0.12 0.12 0.12 0.13 0.15 0.16 0.16 0.15 0.14 0.15 0.15 0.15 0.16
0.04 0.05 0.05 0.05 0.05 0.04 0.04 0.04 0.05 0.05 0.05 0.05 0.06 0.06 0.06 0.06 0.07 0.08 0.09 0.10 0.11 0.12 0.12 0.13 0.14 0.15 0.14 0.13 0.14 0.15 0.16 0.18 0.19 0.19 0.19 0.19 0.18 0.18 0.18 0.18 0.18 0.20 0.19 0.18
0.03 0.04 0.05 0.07 0.07 0.07 0.06 0.05 0.05 0.05 0.05 0.06 0.07 0.07 0.08 0.08 0.08 0.08 0.09 0.10 0.11 0.13 0.13 0.13 0.14 0.15 0.15 0.16 0.18 0.19 0.19 0.19 0.20 0.21 0.22 0.23 0.23 0.24 0.25 0.25 0.23 0.24 0.25 0.23
0.03 0.03 0.04 0.05 0.07 0.07 0.07 0.07 0.07 0.06 0.05 0.05 0.06 0.06 0.07 0.09 0.11 0.11 0.11 0.10 0.10 0.12 0.14 0.16 0.17 0.17 0.19 0.20 0.20 0.20 0.21 0.22 0.22 0.22 0.23 0.25 0.26 0.27 0.29 0.31 0.31 0.32 0.31 0.29

GEFSNGP_prec_meanprecacc_132.txt.gz
Total_Precipitation_Accumulation
0.14 0.15 0.23 0.43 0.54 0.52 0.48 0.51 0.68 0.71 0.64 0.59 0.54 0.61 0.66 0.70 0.66 0.58 0.54 0.55 0.60 0.64 0.64 0.62 0.59 0.61 0.63 0.69 0.80 0.94 1.08 1.07 0.93 0.74 0.61 0.55 0.50 0.43 0.41 0.41 0.43 0.49 0.56 0.60
0.03 0.06 0.15 0.29 0.40 0.42 0.38 0.36 0.44 0.49 0.49 0.40 0.37 0.43 0.44 0.46 0.42 0.39 0.35 0.33 0.31 0.32 0.33 0.34 0.31 0.28 0.27 0.33 0.48 0.73 0.99 0.97 0.75 0.58 0.47 0.42 0.41 0.40 0.35 0.35 0.40 0.45 0.46 0.49
0.03 0.03 0.10 0.30 0.36 0.34 0.33 0.25 0.25 0.31 0.31 0.27 0.29 0.35 0.35 0.37 0.39 0.29 0.22 0.20 0.20 0.21 0.20 0.20 0.19 0.18 0.19 0.26 0.38 0.54 0.64 0.60 0.51 0.40 0.38 0.41 0.43 0.37 0.35 0.34 0.36 0.39 0.40 0.42
0.06 0.08 0.28 0.57 0.52 0.44 0.40 0.22 0.15 0.15 0.16 0.19 0.28 0.30 0.30 0.29 0.28 0.27 0.18 0.11 0.11 0.12 0.13 0.15 0.16 0.19 0.22 0.27 0.34 0.38 0.40 0.40 0.34 0.31 0.32 0.34 0.36 0.34 0.40 0.44 0.42 0.43 0.46 0.47
0.15 0.19 0.41 0.54 0.49 0.49 0.48 0.33 0.13 0.09 0.10 0.09 0.09 0.10 0.11 0.12 0.10 0.10 0.07 0.04 0.03 0.03 0.03 0.05 0.05 0.06 0.08 0.10 0.12 0.13 0.12 0.13 0.12 0.12 0.13 0.15 0.16 0.22 0.33 0.40 0.42 0.45 0.49 0.50
0.21 0.29 0.42 0.36 0.23 0.25 0.37 0.43 0.12 0.05 0.04 0.02 0.01 0.03 0.05 0.06 0.06 0.02 0.01 0.01 0.00 0.00 0.00 0.00 0.00 0.00 0.00 0.01 0.01 0.01 0.01 0.01 0.01 0.02 0.02 0.04 0.06 0.09 0.16 0.20 0.25 0.33 0.35 0.39
0.24 0.42 0.63 0.45 0.25 0.23 0.39 0.39 0.09 0.03 0.01 0.00 0.00 0.00 0.01 0.04 0.05 0.02 0.00 0.00 0.00 0.00 0.00 0.00 0.00 0.00 0.00 0.00 0.00 0.00 0.00 0.00 0.00 0.00 0.00 0.01 0.02 0.04 0.07 0.09 0.13 0.17 0.22 0.28
0.30 0.59 0.82 0.64 0.41 0.34 0.26 0.11 0.03 0.01 0.00 0.00 0.00 0.00 0.01 0.02 0.03 0.02 0.01 0.00 0.00 0.00 0.00 0.00 0.00 0.00 0.00 0.00 0.00 0.00 0.00 0.00 0.00 0.00 0.00 0.01 0.01 0.02 0.02 0.04 0.07 0.10 0.12 0.17
0.21 0.45 0.52 0.46 0.35 0.25 0.17 0.07 0.01 0.00 0.00 0.00 0.00 0.00 0.00 0.01 0.01 0.01 0.00 0.00 0.00 0.00 0.00 0.00 0.00 0.00 0.00 0.00 0.00 0.00 0.00 0.00 0.01 0.01 0.01 0.01 0.02 0.02 0.02 0.04 0.06 0.08 0.11 0.17
0.03 0.09 0.15 0.18 0.18 0.11 0.08 0.05 0.01 0.00 0.00 0.00 0.00 0.00 0.00 0.01 0.01 0.01 0.00 0.00 0.00 0.00 0.00 0.00 0.00 0.00 0.00 0.00 0.00 0.00 0.00 0.00 0.00 0.01 0.01 0.01 0.02 0.03 0.04 0.04 0.07 0.10 0.16 0.21
0.02 0.01 0.02 0.06 0.08 0.07 0.04 0.02 0.00 0.00 0.00 0.00 0.00 0.00 0.00 0.01 0.01 0.01 0.00 0.00 0.00 0.00 0.00 0.00 0.00 0.00 0.00 0.00 0.00 0.00 0.00 0.00 0.00 0.01 0.01 0.01 0.01 0.01 0.02 0.03 0.05 0.12 0.19 0.24
0.01 0.00 0.01 0.03 0.04 0.03 0.02 0.01 0.00 0.00 0.00 0.00 0.00 0.00 0.00 0.00 0.01 0.00 0.00 0.00 0.00 0.00 0.00 0.00 0.00 0.00 0.00 0.00 0.00 0.00 0.00 0.00 0.00 0.01 0.01 0.02 0.01 0.01 0.01 0.02 0.06 0.08 0.09 0.11
0.00 0.00 0.00 0.01 0.01 0.01 0.01 0.00 0.00 0.00 0.00 0.00 0.00 0.00 0.00 0.00 0.00 0.00 0.00 0.00 0.00 0.00 0.00 0.00 0.00 0.00 0.00 0.00 0.00 0.00 0.00 0.00 0.00 0.01 0.01 0.01 0.02 0.04 0.06 0.05 0.03 0.03 0.03 0.04
0.00 0.00 0.00 0.00 0.00 0.00 0.00 0.00 0.00 0.00 0.00 0.00 0.00 0.00 0.00 0.00 0.00 0.00 0.00 0.00 0.00 0.00 0.00 0.00 0.00 0.00 0.00 0.00 0.00 0.00 0.00 0.00 0.01 0.03 0.05 0.06 0.07 0.10 0.15 0.19 0.16 0.09 0.04 0.03
0.00 0.00 0.00 0.00 0.00 0.00 0.00 0.00 0.00 0.00 0.00 0.00 0.00 0.00 0.00 0.00 0.00 0.00 0.00 0.00 0.00 0.00 0.00 0.00 0.00 0.00 0.00 0.00 0.00 0.00 0.00 0.01 0.03 0.08 0.10 0.09 0.10 0.14 0.16 0.12 0.10 0.10 0.08 0.06
0.00 0.00 0.00 0.00 0.00 0.00 0.00 0.00 0.00 0.00 0.00 0.00 0.00 0.00 0.00 0.00 0.00 0.00 0.00 0.00 0.00 0.00 0.00 0.00 0.00 0.00 0.00 0.00 0.00 0.00 0.01 0.01 0.03 0.08 0.11 0.09 0.09 0.10 0.09 0.07 0.06 0.08 0.09 0.10
0.01 0.01 0.01 0.00 0.00 0.00 0.00 0.00 0.00 0.00 0.00 0.00 0.00 0.00 0.00 0.00 0.00 0.00 0.00 0.00 0.00 0.00 0.00 0.00 0.00 0.00 0.00 0.00 0.01 0.01 0.01 0.02 0.03 0.05 0.08 0.07 0.07 0.07 0.07 0.07 0.08 0.09 0.09 0.09
0.02 0.02 0.01 0.01 0.01 0.00 0.00 0.00 0.00 0.00 0.00 0.00 0.00 0.00 0.00 0.00 0.00 0.00 0.00 0.00 0.00 0.00 0.00 0.00 0.00 0.00 0.01 0.01 0.01 0.01 0.02 0.03 0.05 0.07 0.07 0.06 0.06 0.09 0.11 0.10 0.09 0.11 0.11 0.12
0.02 0.02 0.02 0.01 0.01 0.01 0.01 0.01 0.01 0.01 0.00 0.00 0.00 0.00 0.00 0.00 0.00 0.00 0.01 0.01 0.01 0.01 0.00 0.00 0.01 0.01 0.01 0.01 0.02 0.03 0.03 0.04 0.05 0.08 0.08 0.07 0.08 0.10 0.12 0.12 0.11 0.12 0.14 0.15
0.03 0.03 0.03 0.02 0.01 0.01 0.01 0.01 0.01 0.01 0.01 0.01 0.00 0.01 0.01 0.01 0.01 0.01 0.02 0.02 0.02 0.02 0.01 0.01 0.01 0.01 0.01 0.02 0.03 0.04 0.05 0.06 0.07 0.09 0.10 0.09 0.10 0.12 0.13 0.12 0.13 0.14 0.15 0.16
0.03 0.02 0.02 0.02 0.01 0.01 0.01 0.01 0.01 0.01 0.01 0.01 0.01 0.01 0.01 0.01 0.02 0.03 0.03 0.03 0.03 0.03 0.02 0.02 0.02 0.02 0.02 0.04 0.05 0.06 0.07 0.07 0.08 0.09 0.09 0.09 0.09 0.11 0.13 0.13 0.14 0.15 0.15 0.15
0.04 0.03 0.02 0.02 0.02 0.02 0.02 0.01 0.01 0.01 0.01 0.01 0.02 0.02 0.02 0.02 0.02 0.02 0.03 0.03 0.04 0.04 0.04 0.04 0.03 0.04 0.06 0.08 0.07 0.06 0.07 0.07 0.08 0.09 0.10 0.10 0.11 0.12 0.13 0.14 0.15 0.16 0.16 0.17
0.05 0.05 0.04 0.03 0.03 0.03 0.03 0.03 0.02 0.02 0.02 0.02 0.02 0.03 0.03 0.03 0.03 0.04 0.03 0.04 0.04 0.06 0.06 0.05 0.07 0.09 0.12 0.10 0.08 0.09 0.09 0.10 0.10 0.11 0.13 0.15 0.16 0.15 0.14 0.14 0.15 0.15 0.17 0.19
0.06 0.05 0.04 0.04 0.04 0.04 0.04 0.05 0.04 0.03 0.03 0.03 0.03 0.03 0.04 0.05 0.05 0.06 0.06 0.07 0.08 0.09 0.08 0.09 0.10 0.13 0.15 0.12 0.12 0.12 0.13 0.13 0.13 0.13 0.15 0.16 0.18 0.19 0.18 0.17 0.17 0.18 0.18 0.19
0.04 0.05 0.05 0.05 0.05 0.05 0.04 0.04 0.05 0.05 0.05 0.05 0.06 0.06 0.06 0.06 0.07 0.08 0.09 0.10 0.11 0.12 0.12 0.13 0.14 0.15 0.14 0.14 0.15 0.15 0.17 0.19 0.20 0.21 0.21 0.21 0.21 0.21 0.21 0.20 0.21 0.23 0.23 0.22
0.03 0.04 0.05 0.07 0.07 0.07 0.06 0.05 0.05 0.05 0.05 0.06 0.07 0.07 0.08 0.08 0.08 0.08 0.09 0.10 0.11 0.13 0.13 0.13 0.14 0.15 0.15 0.17 0.18 0.19 0.20 0.20 0.21 0.22 0.24 0.25 0.26 0.27 0.29 0.29 0.27 0.29 0.29 0.27
0.03 0.03 0.04 0.06 0.07 0.08 0.07 0.07 0.07 0.06 0.05 0.06 0.06 0.06 0.07 0.09 0.11 0.11 0.11 0.10 0.10 0.12 0.14 0.16 0.17 0.18 0.19 0.21 0.20 0.21 0.22 0.23 0.23 0.23 0.25 0.27 0.29 0.31 0.33 0.36 0.37 0.37 0.37 0.35

GEFSNGP_prec_meanprecacc_138.txt.gz
Total_Precipitation_Accumulation
0.14 0.15 0.23 0.43 0.54 0.52 0.48 0.51 0.68 0.71 0.65 0.59 0.55 0.61 0.66 0.70 0.66 0.58 0.54 0.55 0.60 0.64 0.64 0.62 0.59 0.61 0.63 0.69 0.80 0.94 1.08 1.07 0.93 0.74 0.61 0.55 0.50 0.43 0.41 0.41 0.43 0.49 0.56 0.60
0.03 0.06 0.15 0.29 0.40 0.42 0.38 0.36 0.44 0.49 0.49 0.40 0.37 0.43 0.44 0.46 0.42 0.39 0.35 0.33 0.31 0.32 0.33 0.34 0.31 0.28 0.27 0.33 0.49 0.73 0.99 0.97 0.75 0.58 0.47 0.42 0.41 0.40 0.35 0.35 0.40 0.45 0.46 0.49
0.03 0.03 0.10 0.30 0.36 0.34 0.33 0.25 0.25 0.31 0.31 0.27 0.29 0.35 0.35 0.37 0.39 0.29 0.22 0.20 0.20 0.21 0.20 0.20 0.19 0.18 0.19 0.26 0.38 0.54 0.64 0.60 0.51 0.40 0.38 0.41 0.43 0.37 0.35 0.34 0.36 0.39 0.40 0.42
0.06 0.08 0.28 0.57 0.52 0.44 0.40 0.22 0.15 0.15 0.16 0.19 0.28 0.30 0.30 0.29 0.28 0.27 0.18 0.11 0.11 0.12 0.13 0.15 0.16 0.19 0.23 0.27 0.34 0.38 0.40 0.40 0.34 0.31 0.32 0.34 0.36 0.34 0.40 0.44 0.42 0.43 0.46 0.47
0.15 0.19 0.41 0.54 0.49 0.49 0.48 0.33 0.13 0.09 0.10 0.09 0.09 0.10 0.11 0.12 0.10 0.10 0.07 0.04 0.03 0.03 0.03 0.05 0.05 0.06 0.08 0.10 0.12 0.13 0.12 0.13 0.12 0.12 0.13 0.15 0.16 0.22 0.33 0.40 0.42 0.45 0.49 0.50
0.21 0.29 0.42 0.36 0.23 0.25 0.37 0.43 0.12 0.05 0.04 0.02 0.01 0.03 0.05 0.06 0.06 0.02 0.01 0.01 0.00 0.00 0.00 0.00 0.00 0.00 0.00 0.01 0.01 0.01 0.01 0.01 0.01 0.02 0.02 0.04 0.06 0.09 0.16 0.20 0.25 0.33 0.35 0.39
0.24 0.42 0.63 0.45 0.25 0.23 0.39 0.39 0.09 0.03 0.01 0.00 0.00 0.00 0.01 0.04 0.05 0.02 0.00 0.00 0.00 0.00 0.00 0.00 0.00 0.00 0.00 0.00 0.00 0.00 0.00 0.00 0.00 0.00 0.00 0.01 0.02 0.04 0.07 0.09 0.13 0.17 0.22 0.28
0.30 0.59 0.82 0.64 0.41 0.34 0.26 0.11 0.03 0.01 0.00 0.00 0.00 0.00 0.01 0.02 0.03 0.02 0.01 0.00 0.00 0.00 0.00 0.00 0.00 0.00 0.00 0.00 0.00 0.00 0.00 0.00 0.00 0.00 0.00 0.01 0.01 0.02 0.02 0.04 0.07 0.10 0.12 0.17
0.21 0.45 0.52 0.46 0.35 0.25 0.17 0.07 0.01 0.00 0.00 0.00 0.00 0.00 0.00 0.01 0.01 0.01 0.00 0.00 0.00 0.00 0.00 0.00 0.00 0.00 0.00 0.00 0.00 0.00 0.00 0.00 0.01 0.01 0.01 0.01 0.02 0.02 0.02 0.04 0.06 0.08 0.11 0.18
0.03 0.09 0.15 0.18 0.18 0.11 0.08 0.05 0.01 0.00 0.00 0.00 0.00 0.00 0.00 0.01 0.01 0.01 0.00 0.00 0.00 0.00 0.00 0.00 0.00 0.00 0.00 0.00 0.00 0.00 0.00 0.00 0.00 0.01 0.01 0.01 0.02 0.03 0.04 0.05 0.07 0.10 0.16 0.22
0.02 0.02 0.02 0.06 0.08 0.07 0.04 0.02 0.00 0.00 0.00 0.00 0.00 0.00 0.00 0.01 0.01 0.01 0.00 0.00 0.00 0.00 0.00 0.00 0.00 0.00 0.00 0.00 0.00 0.00 0.00 0.00 0.00 0.01 0.01 0.01 0.01 0.01 0.03 0.04 0.06 0.12 0.19 0.25
0.02 0.01 0.01 0.03 0.04 0.03 0.02 0.01 0.00 0.00 0.00 0.00 0.00 0.00 0.00 0.00 0.01 0.00 0.00 0.00 0.00 0.00 0.00 0.00 0.00 0.00 0.00 0.00 0.00 0.00 0.00 0.00 0.00 0.01 0.01 0.02 0.02 0.01 0.01 0.03 0.06 0.08 0.09 0.12
0.01 0.00 0.00 0.01 0.01 0.01 0.01 0.00 0.00 0.00 0.00 0.00 0.00 0.00 0.00 0.00 0.00 0.00 0.00 0.00 0.00 0.00 0.00 0.00 0.00 0.00 0.00 0.00 0.00 0.00 0.00 0.00 0.00 0.01 0.01 0.01 0.02 0.04 0.06 0.05 0.03 0.03 0.03 0.04
0.00 0.00 0.00 0.00 0.00 0.00 0.00 0.00 0.00 0.00 0.00 0.00 0.00 0.00 0.00 0.00 0.00 0.00 0.00 0.00 0.00 0.00 0.00 0.00 0.00 0.00 0.00 0.00 0.00 0.00 0.00 0.00 0.01 0.03 0.05 0.06 0.07 0.10 0.15 0.19 0.17 0.09 0.04 0.04
0.00 0.00 0.00 0.00 0.00 0.00 0.00 0.00 0.00 0.00 0.00 0.00 0.00 0.00 0.00 0.00 0.00 0.00 0.00 0.00 0.00 0.00 0.00 0.00 0.00 0.00 0.00 0.00 0.00 0.00 0.00 0.01 0.03 0.08 0.10 0.09 0.10 0.14 0.16 0.13 0.11 0.10 0.08 0.06
0.00 0.00 0.00 0.00 0.00 0.00 0.00 0.00 0.00 0.00 0.00 0.00 0.00 0.00 0.00 0.00 0.00 0.00 0.00 0.00 0.00 0.00 0.00 0.00 0.00 0.00 0.00 0.00 0.00 0.00 0.01 0.01 0.03 0.08 0.11 0.09 0.09 0.10 0.10 0.08 0.06 0.08 0.10 0.11
0.01 0.01 0.01 0.00 0.00 0.00 0.00 0.00 0.00 0.00 0.00 0.00 0.00 0.00 0.00 0.00 0.00 0.00 0.00 0.00 0.00 0.00 0.00 0.00 0.00 0.00 0.00 0.00 0.01 0.01 0.01 0.02 0.03 0.05 0.08 0.07 0.07 0.07 0.07 0.08 0.08 0.09 0.10 0.10
0.02 0.02 0.01 0.01 0.01 0.00 0.00 0.00 0.00 0.00 0.00 0.00 0.00 0.00 0.00 0.00 0.00 0.00 0.00 0.00 0.00 0.00 0.00 0.00 0.00 0.00 0.01 0.01 0.01 0.01 0.02 0.03 0.05 0.07 0.07 0.06 0.07 0.09 0.12 0.11 0.10 0.12 0.12 0.13
0.02 0.02 0.02 0.01 0.01 0.01 0.01 0.01 0.01 0.01 0.01 0.00 0.00 0.00 0.00 0.00 0.00 0.00 0.01 0.01 0.01 0.01 0.00 0.00 0.01 0.01 0.01 0.01 0.02 0.03 0.03 0.04 0.05 0.08 0.08 0.07 0.08 0.11 0.13 0.13 0.12 0.13 0.15 0.16
0.03 0.03 0.03 0.02 0.01 0.01 0.01 0.01 0.01 0.01 0.01 0.01 0.01 0.01 0.01 0.01 0.01 0.01 0.02 0.02 0.02 0.02 0.01 0.01 0.01 0.01 0.01 0.02 0.03 0.04 0.05 0.06 0.07 0.09 0.10 0.09 0.11 0.12 0.13 0.13 0.14 0.15 0.16 0.18
0.03 0.02 0.02 0.02 0.01 0.01 0.01 0.01 0.01 0.01 0.01 0.01 0.01 0.01 0.01 0.01 0.02 0.03 0.03 0.03 0.03 0.03 0.02 0.03 0.02 0.02 0.02 0.04 0.05 0.06 0.07 0.07 0.08 0.09 0.10 0.09 0.10 0.11 0.14 0.14 0.15 0.16 0.17 0.17
0.04 0.03 0.03 0.02 0.02 0.02 0.02 0.01 0.01 0.01 0.01 0.01 0.02 0.02 0.02 0.02 0.02 0.02 0.03 0.04 0.04 0.04 0.04 0.04 0.04 0.04 0.06 0.08 0.07 0.06 0.07 0.07 0.08 0.10 0.11 0.10 0.11 0.12 0.14 0.15 0.16 0.17 0.17 0.18
0.06 0.05 0.04 0.04 0.03 0.03 0.03 0.03 0.02 0.02 0.02 0.02 0.02 0.03 0.03 0.03 0.03 0.04 0.04 0.04 0.04 0.06 0.06 0.05 0.07 0.09 0.12 0.10 0.08 0.09 0.09 0.10 0.10 0.12 0.13 0.15 0.16 0.16 0.15 0.15 0.15 0.16 0.18 0.20
0.06 0.05 0.04 0.04 0.04 0.04 0.04 0.05 0.04 0.03 0.03 0.03 0.03 0.04 0.04 0.05 0.05 0.06 0.07 0.08 0.08 0.09 0.08 0.09 0.10 0.13 0.15 0.12 0.12 0.12 0.13 0.13 0.13 0.14 0.15 0.17 0.19 0.19 0.18 0.17 0.18 0.19 0.19 0.20
0.05 0.05 0.05 0.05 0.05 0.05 0.04 0.04 0.05 0.05 0.05 0.06 0.06 0.06 0.06 0.06 0.07 0.08 0.09 0.10 0.11 0.12 0.12 0.13 0.15 0.15 0.14 0.14 0.15 0.15 0.17 0.19 0.21 0.21 0.21 0.21 0.21 0.22 0.21 0.21 0.22 0.24 0.24 0.23
0.03 0.04 0.06 0.07 0.07 0.07 0.06 0.05 0.05 0.05 0.05 0.06 0.07 0.07 0.08 0.08 0.08 0.08 0.09 0.10 0.11 0.13 0.13 0.13 0.15 0.15 0.15 0.17 0.19 0.19 0.20 0.21 0.21 0.22 0.24 0.26 0.26 0.28 0.29 0.30 0.28 0.30 0.30 0.29
0.03 0.03 0.04 0.06 0.07 0.08 0.07 0.07 0.07 0.06 0.06 0.06 0.06 0.06 0.07 0.09 0.11 0.11 0.11 0.10 0.11 0.13 0.15 0.17 0.18 0.18 0.19 0.21 0.21 0.21 0.22 0.23 0.23 0.23 0.25 0.28 0.29 0.31 0.34 0.36 0.38 0.38 0.38 0.37

GEFSNGP_prec_meanprecacc_144.txt.gz
Total_Precipitation_Accumulation
0.14 0.15 0.23 0.43 0.54 0.52 0.48 0.51 0.68 0.71 0.65 0.60 0.55 0.61 0.66 0.70 0.66 0.58 0.54 0.55 0.60 0.64 0.64 0.62 0.59 0.61 0.63 0.69 0.80 0.95 1.08 1.07 0.93 0.74 0.61 0.55 0.50 0.43 0.41 0.41 0.43 0.49 0.56 0.60
0.03 0.06 0.15 0.29 0.40 0.42 0.38 0.36 0.44 0.49 0.49 0.40 0.37 0.43 0.44 0.46 0.42 0.39 0.35 0.33 0.31 0.32 0.33 0.34 0.31 0.28 0.27 0.33 0.49 0.73 0.99 0.97 0.75 0.58 0.47 0.42 0.41 0.40 0.35 0.35 0.40 0.45 0.46 0.49
0.03 0.03 0.10 0.30 0.36 0.34 0.33 0.25 0.25 0.31 0.31 0.27 0.29 0.35 0.35 0.37 0.39 0.29 0.22 0.20 0.20 0.21 0.20 0.20 0.19 0.18 0.19 0.26 0.38 0.54 0.64 0.60 0.51 0.40 0.38 0.41 0.43 0.37 0.35 0.34 0.36 0.39 0.40 0.42
0.06 0.08 0.28 0.57 0.52 0.44 0.40 0.22 0.15 0.15 0.16 0.19 0.28 0.30 0.30 0.29 0.28 0.27 0.18 0.11 0.11 0.12 0.13 0.15 0.16 0.19 0.23 0.27 0.34 0.38 0.40 0.40 0.34 0.31 0.32 0.34 0.36 0.34 0.40 0.44 0.42 0.43 0.46 0.47
0.15 0.19 0.41 0.54 0.49 0.49 0.48 0.33 0.13 0.09 0.10 0.09 0.09 0.10 0.12 0.12 0.10 0.10 0.07 0.04 0.03 0.03 0.03 0.05 0.05 0.06 0.08 0.10 0.12 0.13 0.12 0.13 0.12 0.12 0.13 0.15 0.16 0.22 0.33 0.40 0.42 0.45 0.49 0.50
0.21 0.29 0.42 0.36 0.23 0.25 0.37 0.43 0.12 0.05 0.04 0.02 0.01 0.03 0.05 0.06 0.06 0.02 0.01 0.01 0.00 0.00 0.00 0.00 0.00 0.00 0.00 0.01 0.01 0.01 0.01 0.01 0.01 0.02 0.02 0.04 0.06 0.09 0.16 0.20 0.25 0.33 0.35 0.39
0.24 0.42 0.63 0.45 0.25 0.23 0.39 0.39 0.09 0.03 0.01 0.00 0.00 0.00 0.01 0.04 0.05 0.02 0.00 0.00 0.00 0.00 0.00 0.00 0.00 0.00 0.00 0.00 0.00 0.00 0.00 0.00 0.00 0.00 0.00 0.01 0.02 0.04 0.07 0.09 0.13 0.17 0.22 0.28
0.31 0.59 0.82 0.64 0.41 0.34 0.26 0.11 0.03 0.01 0.00 0.00 0.00 0.00 0.01 0.02 0.03 0.02 0.01 0.00 0.00 0.00 0.00 0.00 0.00 0.00 0.00 0.00 0.00 0.00 0.00 0.00 0.00 0.00 0.00 0.01 0.01 0.02 0.02 0.04 0.07 0.10 0.12 0.17
0.22 0.45 0.52 0.46 0.35 0.25 0.17 0.07 0.01 0.00 0.00 0.00 0.00 0.00 0.00 0.01 0.01 0.01 0.00 0.00 0.00 0.00 0.00 0.00 0.00 0.00 0.00 0.00 0.00 0.00 0.00 0.00 0.01 0.01 0.01 0.01 0.02 0.02 0.02 0.04 0.06 0.08 0.11 0.18
0.04 0.10 0.15 0.18 0.18 0.11 0.08 0.05 0.01 0.00 0.00 0.00 0.00 0.00 0.00 0.01 0.01 0.01 0.00 0.00 0.00 0.00 0.00 0.00 0.00 0.00 0.00 0.00 0.00 0.00 0.00 0.00 0.00 0.01 0.01 0.01 0.02 0.03 0.04 0.05 0.07 0.10 0.16 0.22
0.04 0.03 0.03 0.06 0.08 0.07 0.04 0.02 0.00 0.00 0.00 0.00 0.00 0.00 0.00 0.01 0.01 0.01 0.00 0.00 0.00 0.00 0.00 0.00 0.00 0.00 0.00 0.00 0.00 0.00 0.00 0.00 0.00 0.01 0.01 0.01 0.01 0.01 0.03 0.04 0.06 0.12 0.20 0.25
0.04 0.02 0.02 0.04 0.04 0.03 0.02 0.01 0.00 0.00 0.00 0.00 0.00 0.00 0.00 0.00 0.01 0.00 0.00 0.00 0.00 0.00 0.00 0.00 0.00 0.00 0.00 0.00 0.00 0.00 0.00 0.00 0.00 0.01 0.01 0.02 0.02 0.01 0.01 0.03 0.06 0.08 0.09 0.12
0.02 0.01 0.01 0.02 0.02 0.01 0.01 0.00 0.00 0.00 0.00 0.00 0.00 0.00 0.00 0.00 0.00 0.00 0.00 0.00 0.00 0.00 0.00 0.00 0.00 0.00 0.00 0.00 0.00 0.00 0.00 0.00 0.00 0.01 0.01 0.01 0.02 0.04 0.06 0.05 0.03 0.03 0.03 0.05
0.01 0.01 0.01 0.01 0.01 0.01 0.01 0.00 0.00 0.00 0.00 0.00 0.00 0.00 0.00 0.00 0.00 0.00 0.00 0.00 0.00 0.00 0.00 0.00 0.00 0.00 0.00 0.00 0.00 0.00 0.00 0.00 0.01 0.03 0.05 0.06 0.07 0.10 0.15 0.19 0.17 0.09 0.04 0.04
0.01 0.01 0.01 0.00 0.00 0.00 0.00 0.00 0.00 0.00 0.00 0.00 0.00 0.00 0.00 0.00 0.00 0.00 0.00 0.00 0.00 0.00 0.00 0.00 0.00 0.00 0.00 0.00 0.00 0.00 0.00 0.01 0.03 0.08 0.10 0.09 0.10 0.14 0.16 0.13 0.11 0.10 0.09 0.07
0.01 0.01 0.00 0.00 0.00 0.00 0.00 0.00 0.00 0.00 0.00 0.00 0.00 0.00 0.00 0.00 0.00 0.00 0.00 0.00 0.00 0.00 0.00 0.00 0.00 0.00 0.00 0.00 0.00 0.00 0.01 0.01 0.03 0.08 0.11 0.09 0.09 0.10 0.10 0.08 0.07 0.08 0.10 0.11
0.02 0.01 0.01 0.01 0.00 0.00 0.00 0.00 0.00 0.00 0.00 0.00 0.00 0.00 0.00 0.00 0.00 0.00 0.00 0.00 0.00 0.00 0.00 0.00 0.00 0.00 0.00 0.00 0.01 0.01 0.01 0.02 0.03 0.05 0.08 0.07 0.07 0.07 0.07 0.08 0.08 0.10 0.10 0.11
0.02 0.02 0.01 0.01 0.01 0.00 0.00 0.00 0.00 0.00 0.00 0.00 0.00 0.00 0.00 0.00 0.00 0.00 0.00 0.00 0.00 0.00 0.00 0.00 0.00 0.00 0.01 0.01 0.01 0.01 0.02 0.04 0.05 0.07 0.07 0.06 0.07 0.09 0.12 0.11 0.10 0.12 0.12 0.13
0.02 0.02 0.02 0.01 0.01 0.01 0.01 0.01 0.01 0.01 0.01 0.00 0.00 0.00 0.00 0.00 0.00 0.00 0.01 0.01 0.01 0.01 0.00 0.00 0.01 0.01 0.01 0.01 0.02 0.03 0.03 0.04 0.06 0.08 0.08 0.07 0.08 0.11 0.13 0.13 0.12 0.13 0.15 0.16
0.03 0.03 0.03 0.02 0.01 0.01 0.01 0.01 0.01 0.01 0.01 0.01 0.01 0.01 0.01 0.01 0.01 0.01 0.02 0.02 0.02 0.02 0.01 0.01 0.01 0.01 0.01 0.02 0.03 0.04 0.05 0.06 0.07 0.09 0.10 0.09 0.11 0.12 0.13 0.13 0.14 0.16 0.17 0.18
0.03 0.03 0.02 0.02 0.01 0.01 0.01 0.01 0.01 0.01 0.01 0.01 0.01 0.01 0.01 0.01 0.02 0.03 0.03 0.03 0.03 0.03 0.02 0.03 0.02 0.02 0.02 0.04 0.05 0.06 0.07 0.07 0.08 0.09 0.10 0.10 0.10 0.12 0.14 0.14 0.15 0.17 0.17 0.17
0.05 0.04 0.03 0.02 0.02 0.02 0.02 0.01 0.01 0.01 0.01 0.01 0.02 0.02 0.02 0.02 0.02 0.02 0.03 0.04 0.04 0.04 0.04 0.04 0.04 0.04 0.06 0.09 0.07 0.07 0.07 0.08 0.09 0.10 0.11 0.11 0.11 0.13 0.14 0.15 0.17 0.17 0.17 0.18
0.07 0.06 0.05 0.04 0.04 0.04 0.04 0.03 0.02 0.02 0.02 0.02 0.02 0.03 0.03 0.03 0.03 0.04 0.04 0.04 0.04 0.06 0.06 0.05 0.07 0.09 0.12 0.10 0.08 0.09 0.09 0.10 0.11 0.12 0.13 0.15 0.17 0.16 0.16 0.15 0.16 0.17 0.18 0.21
0.07 0.07 0.06 0.05 0.05 0.05 0.05 0.05 0.04 0.03 0.03 0.03 0.03 0.04 0.04 0.05 0.05 0.06 0.07 0.08 0.08 0.09 0.08 0.09 0.10 0.14 0.15 0.12 0.12 0.12 0.13 0.13 0.14 0.14 0.15 0.17 0.20 0.20 0.19 0.18 0.18 0.19 0.19 0.20
0.06 0.06 0.07 0.07 0.07 0.07 0.06 0.06 0.06 0.06 0.06 0.06 0.06 0.06 0.06 0.06 0.07 0.08 0.09 0.10 0.11 0.12 0.12 0.13 0.15 0.16 0.14 0.14 0.15 0.16 0.18 0.20 0.21 0.22 0.22 0.22 0.22 0.22 0.22 0.21 0.22 0.24 0.24 0.23
0.04 0.05 0.06 0.08 0.08 0.08 0.07 0.07 0.06 0.06 0.06 0.06 0.07 0.08 0.08 0.08 0.08 0.08 0.09 0.10 0.11 0.13 0.13 0.14 0.15 0.16 0.16 0.18 0.20 0.20 0.21 0.22 0.23 0.24 0.25 0.26 0.27 0.28 0.30 0.30 0.29 0.30 0.31 0.29
0.03 0.04 0.05 0.06 0.08 0.08 0.08 0.08 0.07 0.06 0.06 0.06 0.06 0.06 0.07 0.09 0.11 0.12 0.11 0.11 0.11 0.13 0.16 0.18 0.20 0.21 0.22 0.23 0.23 0.23 0.24 0.25 0.25 0.25 0.26 0.29 0.30 0.32 0.34 0.37 0.38 0.39 0.39 0.38